Date String (YYYY-MM-DD hh:mm:ss) UTC,Instrument flags,Ambient pressure (hPa),Sample flow (lpm),Bypass flow (lpm),Sample temperature (°C),Ambient temperature (°C),ASC tube jacket temperature (°C),LED temperature (°C),Box temperature (°C),Sample RH (%),Span deviation,Mass concentration (μg/m³),Mass concentration (μg/m³),Mass concentration (μg/m³)
DateTimeUTC,F1_M11,P_M11,Q1_M11,Q2_M11,T1_M11,T2_M11,T3_M11,T4_M11,T5_M11,U1_M11,ZSPAN_M11,X0_M11,X2_M11,X1_M11
2023-01-18 20:00:00,,0815.7,5.01,0.00,22.9,22.4,00.0,31.7,24.8,15.0,0000.0,0001.98,0001.50,0001.36
2023-01-18 20:01:00,,0815.8,5.00,0.00,23.0,23.2,00.0,31.7,25.0,14.9,0000.0,0002.08,0001.52,0001.38
2023-01-18 20:02:00,,0815.7,5.00,0.00,23.1,22.8,00.0,31.7,25.0,14.8,0000.0,0002.11,0001.54,0001.39
2023-01-18 20:03:00,,0815.7,5.00,0.00,23.1,22.4,00.0,31.7,24.9,14.8,0000.0,0002.21,0001.59,0001.42
2023-01-18 20:04:00,,0815.8,5.01,0.00,23.1,22.0,00.0,31.8,24.8,14.8,0000.0,0002.26,0001.62,0001.43
2023-01-18 20:05:00,,0815.7,5.00,0.00,23.0,21.8,00.0,31.8,24.8,14.8,0000.0,0002.29,0001.65,0001.45
2023-01-18 20:06:00,,0815.7,4.99,0.00,23.0,21.6,00.0,31.8,24.7,14.8,0000.0,0002.38,0001.69,0001.47
2023-01-18 20:07:00,,0815.8,5.00,0.00,23.0,21.5,00.0,31.8,24.7,14.8,0000.0,0002.46,0001.74,0001.49
2023-01-18 20:08:00,,0815.8,5.01,0.00,23.0,21.4,00.0,31.8,24.6,14.8,0000.0,0002.49,0001.76,0001.51
2023-01-18 20:09:00,,0815.8,5.01,0.00,23.0,21.4,00.0,31.8,24.6,14.9,0000.0,0002.50,0001.77,0001.52
2023-01-18 20:10:00,,0815.8,5.00,0.00,23.0,21.3,00.0,31.8,24.6,14.9,0000.0,0002.53,0001.78,0001.55
2023-01-18 20:11:00,,0815.8,5.00,0.00,22.9,21.3,00.0,31.8,24.5,15.0,0000.0,0002.95,0001.75,0001.56
2023-01-18 20:12:00,,0815.8,5.00,0.00,22.9,21.2,00.0,31.7,24.5,15.0,0000.0,0002.86,0001.75,0001.58
2023-01-18 20:13:00,,0815.7,4.99,0.00,22.9,21.2,00.0,31.7,24.5,15.1,0000.0,0002.89,0001.79,0001.61
2023-01-18 20:14:00,,0815.7,5.03,0.00,22.9,21.1,00.0,31.7,24.5,15.1,0000.0,0002.84,0001.78,0001.62
2023-01-18 20:15:00,,0815.7,5.00,0.00,22.8,21.0,00.0,31.7,24.4,15.1,0000.0,0002.82,0001.78,0001.63
2023-01-18 20:16:00,,0815.7,4.99,0.00,22.8,21.0,00.0,31.7,24.4,15.1,0000.0,0002.92,0001.83,0001.66
2023-01-18 20:17:00,,0815.8,4.99,0.00,22.8,21.2,00.0,31.7,24.4,15.2,0000.0,0002.86,0001.81,0001.67
2023-01-18 20:18:00,,0815.8,4.99,0.00,22.9,22.2,00.0,31.6,24.7,15.1,0000.0,0002.86,0001.81,0001.68
2023-01-18 20:19:00,,0815.8,4.98,0.00,23.0,23.1,00.0,31.7,24.9,15.0,0000.0,0002.83,0001.79,0001.67
2023-01-18 20:20:00,,0815.8,5.01,0.00,23.0,22.9,00.0,31.7,24.9,15.0,0000.0,0002.82,0001.79,0001.67
2023-01-18 20:21:00,,0815.8,5.01,0.00,23.1,22.5,00.0,31.7,24.9,15.0,0000.0,0002.67,0001.78,0001.67
2023-01-18 20:22:00,,0815.8,4.99,0.00,23.0,22.2,00.0,31.7,24.8,15.0,0000.0,0002.10,0001.78,0001.68
2023-01-18 20:23:00,,0815.8,4.99,0.00,23.0,21.9,00.0,31.7,24.8,15.0,0000.0,0002.12,0001.79,0001.69
2023-01-18 20:24:00,,0815.8,4.99,0.00,23.0,21.7,00.0,31.7,24.7,15.0,0000.0,0002.08,0001.77,0001.68
2023-01-18 20:25:00,,0815.8,4.99,0.00,23.0,21.6,00.0,31.7,24.7,15.0,0000.0,0002.11,0001.78,0001.68
2023-01-18 20:26:00,,0815.8,4.99,0.00,23.0,21.5,00.0,31.7,24.6,15.0,0000.0,0003.06,0001.81,0001.70
2023-01-18 20:27:00,,0815.8,5.01,0.00,23.0,21.4,00.0,31.7,24.6,15.0,0000.0,0003.63,0001.82,0001.70
2023-01-18 20:28:00,,0815.9,5.02,0.00,22.9,21.3,00.0,31.7,24.6,15.0,0000.0,0003.70,0001.83,0001.71
2023-01-18 20:29:00,,0815.9,5.00,0.00,22.9,21.3,00.0,31.7,24.6,15.0,0000.0,0003.69,0001.83,0001.71
2023-01-18 20:30:00,,0815.9,5.00,0.00,22.9,21.2,00.0,31.7,24.5,15.0,0000.0,0003.75,0001.87,0001.72
2023-01-18 20:31:00,,0815.9,5.00,0.00,22.9,21.2,00.0,31.7,24.5,15.0,0000.0,0003.79,0001.89,0001.73
2023-01-18 20:32:00,,0815.9,5.00,0.00,22.9,21.2,00.0,31.7,24.5,15.1,0000.0,0003.84,0001.92,0001.75
2023-01-18 20:33:00,,0816.0,5.00,0.00,22.9,21.3,00.0,31.7,24.5,15.1,0000.0,0003.93,0001.95,0001.76
2023-01-18 20:34:00,,0815.9,4.99,0.00,22.8,21.3,00.0,31.7,24.5,15.1,0000.0,0003.96,0001.96,0001.76
2023-01-18 20:35:00,,0815.9,5.00,0.00,22.8,21.3,00.0,31.7,24.5,15.1,0000.0,0004.05,0001.99,0001.77
2023-01-18 20:36:00,,0816.0,5.00,0.00,22.8,21.4,00.0,31.7,24.5,15.1,0000.0,0004.20,0002.03,0001.79
2023-01-18 20:37:00,,0815.9,5.00,0.00,22.8,21.4,00.0,31.7,24.5,15.2,0000.0,0003.56,0002.00,0001.78
2023-01-18 20:38:00,,0815.9,4.99,0.00,22.8,21.3,00.0,31.7,24.5,15.2,0000.0,0003.25,0001.99,0001.79
2023-01-18 20:39:00,,0816.0,5.02,0.00,22.8,21.4,00.0,31.6,24.5,15.2,0000.0,0003.22,0002.00,0001.80
2023-01-18 20:40:00,,0816.0,5.00,0.00,22.8,21.4,00.0,31.6,24.5,15.2,0000.0,0003.38,0002.03,0001.80
2023-01-18 20:41:00,,0816.0,5.00,0.00,22.8,21.4,00.0,31.6,24.5,15.2,0000.0,0003.68,0002.02,0001.80
2023-01-18 20:42:00,,0816.0,5.00,0.00,22.8,21.4,00.0,31.6,24.5,15.1,0000.0,0003.65,0002.00,0001.80
2023-01-18 20:43:00,,0816.0,5.01,0.00,22.8,21.3,00.0,31.6,24.5,15.2,0000.0,0003.66,0002.01,0001.80
2023-01-18 20:44:00,,0816.0,4.99,0.00,22.8,21.3,00.0,31.6,24.5,15.2,0000.0,0003.57,0001.98,0001.80
2023-01-18 20:45:00,,0816.0,4.98,0.00,22.8,21.3,00.0,31.6,24.5,15.3,0000.0,0003.52,0001.97,0001.79
2023-01-18 20:46:00,,0816.0,5.00,0.00,22.8,21.3,00.0,31.6,24.5,15.3,0000.0,0003.47,0001.94,0001.78
2023-01-18 20:47:00,,0816.1,4.99,0.00,22.8,21.3,00.0,31.6,24.5,15.3,0000.0,0003.44,0001.91,0001.76
2023-01-18 20:48:00,,0816.1,5.01,0.00,22.8,21.3,00.0,31.6,24.5,15.3,0000.0,0003.56,0001.96,0001.76
2023-01-18 20:49:00,,0816.1,5.00,0.00,22.8,21.4,00.0,31.6,24.5,15.4,0000.0,0003.09,0001.93,0001.74
2023-01-18 20:50:00,,0816.1,4.99,0.00,22.8,21.3,00.0,31.6,24.5,15.4,0000.0,0003.10,0001.92,0001.71
2023-01-18 20:51:00,,0816.1,4.99,0.00,22.8,21.3,00.0,31.6,24.5,15.4,0000.0,0003.02,0001.89,0001.69
2023-01-18 20:52:00,,0816.1,5.00,0.00,22.8,21.3,00.0,31.6,24.6,15.4,0000.0,0002.65,0001.87,0001.69
2023-01-18 20:53:00,,0816.1,5.00,0.00,22.8,21.3,00.0,31.6,24.5,15.4,0000.0,0002.69,0001.89,0001.69
2023-01-18 20:54:00,,0816.1,5.01,0.00,22.8,21.3,00.0,31.6,24.6,15.4,0000.0,0002.88,0001.92,0001.67
2023-01-18 20:55:00,,0816.1,5.00,0.00,22.8,21.4,00.0,31.6,24.6,15.4,0000.0,0002.85,0001.90,0001.65
2023-01-18 20:56:00,,0816.1,5.00,0.00,22.8,21.4,00.0,31.5,24.6,15.4,0000.0,0002.83,0001.89,0001.65
2023-01-18 20:57:00,,0816.1,4.99,0.00,22.8,21.3,00.0,31.5,24.6,15.3,0000.0,0002.88,0001.91,0001.64
2023-01-18 20:58:00,,0816.2,5.00,0.00,22.8,21.3,00.0,31.5,24.6,15.3,0000.0,0002.77,0001.92,0001.65
2023-01-18 20:59:00,,0816.1,5.00,0.00,22.8,21.3,00.0,31.5,24.6,15.3,0000.0,0002.43,0001.87,0001.65
